TITAN 3C TRANSTAGE DEB, 27867

Orbit data source: Space-Track

TITAN 3C TRANSTAGE DEB, 27867 is space debris in HEO originally from a launch on Tue, 21 Dec 1965 UTC launched from the Air Force Eastern Test Range (AFETR). Debris objects in space refer to the collection of defunct objects orbiting the Earth. Examples of debris include non-operational satellites, rocket bodies, and fragments generated from explosions, collisions, or faulty payload assembly.

Loading next visibility...
Identifier
27867, 1965-108BN
Orbit
HEO
Country
Flag of USUS
Related business
Manufacturer
Unknown
Mission
Spacecraft
Bus & Motor
Unknown
Mass
Unknown
Launch date (UTC)
1965-12-21 (60 years ago)
Launch vehicle
Unknown
Launch site
Air Force Eastern Test Range (AFETR)
Object type
Payload
Rocket body
Debris
Shape & HBR
Unknown shape, 0.1 m
Radar Cross Section
Medium (>0.1 m² and <1 m²)

Expand to show TLE details & history
Last TLE update: 2 days ago

TLE from 2 days ago
0 TITAN 3C TRANSTAGE DEB
1 27867U 65108BN  26119.54325170 -.00000046  00000-0  00000-0 0  9997
2 27867  26.3068  76.0592 6627150 288.2178 322.8034  2.66925599137320
Epoch: 2026-04-29T13:02Z
TLE epoch observation values (Epoch: 2026-04-29T13:02:16.946Z)
Latitude
4.30199°
Longitude
-165.81138°
Altitude
11,510.821 km
Speed
5.139 km/s
True Right ascension
16h 29m 02s
True Declination
4° 17' 30"
Sunlit
Object was in daylight at epoch
Visualization orbit readout
Latitude
Unknown
Longitude
Unknown
Altitude
Unknown
Speed
Unknown
Apparent Right ascension
Unknown
Apparent Declination
Unknown
Sunlit
N/A
Visualization observer readout
Local Sidereal Time
07:36:56
Azimuth
Unknown
Elevation
Unknown
Doppler factor
Unknown
Orbital elements
Apogee altitude
30,127.487 km
Perigee altitude
1,027.1 km
Semi-major axis
21,955.431 km
Eccentricity
0.66272
Inclination
26.3068°
RAAN
76.0592°
Arg. of periapsis
288.2178°
True anomaly
242.0746°
Mean anomaly
322.8034°
Eccentric anomaly
286.37234°
Mean motion
0.66716 °/min
Orbital period
539.6 mins
BSTAR
0
Loading maneuver chart data...
Computing Atmospheric mass density...

Documentation

Showing up to 5 results
|